CW5306 Weather Reports


time (UTC)temp
F
wind
direction
speed
knots
gust
knots
rain 1hr
in
rain 24hr
in
rain mn
in
humidity
%
barometer
mb
20260901190012 80 62 7.8 16.5 0.00 0.00 0.00 75 1017.2
20260901185514 80 89 6.1 13.0 0.00 0.00 0.00 78 1017.0
20260901185012 80 71 7.8 13.0 0.00 0.00 0.00 77 1017.1
20260901184512 80 98 7.8 13.9 0.00 0.00 0.00 77 1017.0
20260901184011 79 86 7.8 13.9 0.00 0.00 0.00 78 1017.0
20260901183518 79 97 5.2 14.8 0.00 0.00 0.00 79 1016.8
20260901183511 79 104 7.0 14.8 0.00 0.00 0.00 78 1017.1
20260901182512 79 89 9.6 13.9 0.00 0.00 0.00 79 1017.0
20260901182243 79 22 7.0 12.2 0.00 0.00 0.00 79 1017.0
20260901181512 79 79 5.2 8.7 0.00 0.00 0.00 79 1016.8
20260901181012 79 62 6.1 13.0 0.00 0.00 0.00 79 1016.8
20260901180743 79 109 7.8 13.0 0.00 0.00 0.00 78 1016.7
20260901180011 79 83 5.2 12.2 0.00 0.00 0.00 79 1016.9
20260901175511 79 110 5.2 13.0 0.00 0.00 0.00 78 1016.8
20260901175011 79 91 6.1 13.0 0.00 0.00 0.00 78 1016.8
20260901174743 79 73 5.2 12.2 0.00 0.00 0.00 79 1016.8
20260901174016 78 87 7.0 13.0 0.00 0.00 0.00 79 1016.9
20260901173743 78 56 7.0 13.0 0.00 0.00 0.00 79 1016.9
20260901173617 78 83 6.1 9.6 0.00 0.00 0.00 78 1016.9
20260901172731 78 63 4.3 9.6 0.00 0.00 0.00 78 1016.7
20260901172000 78 107 4.3 11.3 0.00 0.00 0.00 78 1016.7
20260901171501 78 95 5.2 12.2 0.00 0.00 0.00 77 1016.6
20260901171231 78 58 1.7 12.2 0.00 0.00 0.00 78 1016.5
20260901170455 78 84 2.6 8.7 0.00 0.00 0.00 78 1016.5
20260901165947 78 78 3.5 11.3 0.00 0.00 0.00 77 1016.4
20260901165447 78 100 4.3 16.5 0.00 0.00 0.00 78 1016.8
20260901164949 78 77 5.2 16.5 0.00 0.00 0.00 77 1016.4
20260901164447 77 68 4.3 9.6 0.00 0.00 0.00 77 1016.6
20260901163947 77 83 3.5 13.9 0.00 0.00 0.00 77 1016.5
20260901163448 78 78 2.6 13.9 0.00 0.00 0.00 79 1016.7
20260901162942 77 91 2.6 11.3 0.00 0.00 0.00 78 1016.6
20260901162436 77 101 1.7 11.3 0.00 0.00 0.00 78 1016.7
20260901161935 77 110 5.2 11.3 0.00 0.00 0.00 78 1016.5
20260901161435 77 98 3.5 11.3 0.00 0.00 0.00 77 1016.3
20260901160935 77 70 3.5 11.3 0.00 0.00 0.00 78 1016.5
20260901160436 77 58 3.5 9.6 0.00 0.00 0.00 78 1016.3
20260901155936 77 75 3.5 9.6 0.00 0.00 0.00 78 1016.2
20260901155424 77 100 3.5 12.2 0.00 0.00 0.00 78 1016.0
20260901154924 77 71 5.2 12.2 0.00 0.00 0.00 77 1016.3
20260901154655 78 57 3.5 12.2 0.00 0.00 0.00 77 1016.2
20260901153925 77 103 7.0 13.0 0.00 0.00 0.00 76 1016.4
20260901153424 77 70 4.3 13.0 0.00 0.00 0.00 78 1016.2
20260901152923 77 70 5.2 13.9 0.00 0.00 0.00 77 1016.3
20260901152423 77 30 5.2 13.9 0.00 0.00 0.00 77 1016.1
20260901151912 77 102 5.2 13.0 0.00 0.00 0.00 78 1016.1
20260901151411 77 67 5.2 12.2 0.00 0.00 0.00 78 1015.8
20260901150911 77 72 4.3 11.3 0.00 0.00 0.00 77 1016.0
20260901150644 77 91 6.1 12.2 0.00 0.00 0.00 78 1015.9
20260901145912 77 86 3.5 12.2 0.00 0.00 0.00 79 1015.7
20260901145412 78 41 5.2 12.2 0.00 0.00 0.00 79 1015.8
20260901144912 78 90 3.5 12.2 0.00 0.00 0.00 79 1015.6
20260901144405 78 122 6.1 12.2 0.00 0.00 0.00 79 1015.7
20260901143859 77 90 5.2 12.2 0.00 0.00 0.00 78 1015.8
20260901143359 77 86 7.0 12.2 0.00 0.00 0.00 78 1015.6
20260901142859 77 76 3.5 13.0 0.00 0.00 0.00 79 1015.8
20260901142400 77 99 5.2 13.0 0.00 0.00 0.00 78 1015.8
20260901141901 78 58 6.1 12.2 0.00 0.00 0.00 79 1015.7
20260901141400 77 84 5.2 12.2 0.00 0.00 0.00 78 1015.7
20260901140855 77 72 6.1 12.2 0.00 0.00 0.00 78 1015.8
20260901140347 77 114 3.5 8.7 0.00 0.00 0.00 78 1015.8
20260901135847 77 67 3.5 8.7 0.00 0.00 0.00 78 1015.4
20260901135353 77 102 5.2 12.2 0.00 0.00 0.00 76 1015.8
20260901135347 77 55 4.3 12.2 0.00 0.00 0.00 77 1015.7
20260901134347 77 91 5.2 12.2 0.00 0.00 0.00 76 1015.5
20260901133848 77 60 7.0 12.2 0.00 0.00 0.00 76 1015.5
20260901133342 77 97 5.2 11.3 0.00 0.00 0.00 75 1015.6
20260901132835 77 95 3.5 12.2 0.00 0.00 0.00 75 1015.6
20260901132335 77 108 6.1 12.2 0.00 0.00 0.00 75 1016.1
20260901131836 77 70 5.2 12.2 0.00 0.00 0.00 75 1015.8
20260901131606 77 93 5.2 12.2 0.00 0.00 0.00 76 1015.7
20260901130836 77 121 3.5 13.0 0.00 0.00 0.00 77 1015.7
20260901130335 77 72 5.2 13.0 0.00 0.00 0.00 77 1015.7
20260901125823 77 83 5.2 13.0 0.00 0.00 0.00 77 1015.7
20260901125324 78 119 5.2 11.3 0.00 0.00 0.00 78 1015.4
20260901125054 77 85 3.5 13.0 0.00 0.00 0.00 78 1015.7
20260901124323 77 71 3.5 13.9 0.00 0.00 0.00 77 1015.6
20260901124055 77 86 3.5 13.9 0.00 0.00 0.00 78 1015.8
20260901123324 77 68 7.8 13.9 0.00 0.00 0.00 79 1015.8
20260901123056 77 76 3.5 13.9 0.00 0.00 0.00 78 1016.1
20260901122323 77 99 6.1 13.0 0.00 0.00 0.00 78 1016.1
20260901121823 77 90 3.5 13.0 0.00 0.00 0.00 78 1016.0
20260901121325 77 66 5.2 14.8 0.00 0.00 0.00 78 1016.1
20260901121054 77 87 9.6 14.8 0.00 0.00 0.00 77 1016.1
20260901120324 77 102 7.0 13.9 0.00 0.00 0.00 77 1016.0
20260901120055 77 110 3.5 13.9 0.00 0.00 0.00 77 1016.3
20260901115325 77 91 5.2 12.2 0.00 0.00 0.00 77 1016.1
20260901114824 77 106 5.2 13.0 0.00 0.00 0.00 78 1016.2
20260901114325 77 126 3.5 13.9 0.00 0.00 0.00 78 1016.2
20260901113824 77 99 4.3 13.9 0.00 0.00 0.00 77 1016.3
20260901113556 77 78 9.6 13.9 0.00 0.00 0.00 77 1016.3
20260901112825 77 104 7.0 13.9 0.00 0.00 0.00 77 1016.0
20260901112325 77 94 2.6 17.4 0.00 0.00 0.00 76 1016.4
20260901112055 77 88 6.1 17.4 0.00 0.00 0.00 76 1016.4
20260901111600 78 85 3.5 14.8 0.00 0.00 0.00 79 1016.4
20260901111324 77 80 7.8 13.0 0.00 0.00 0.00 77 1016.5
20260901110323 78 87 6.1 14.8 0.00 0.00 0.00 78 1016.4
20260901105823 78 107 5.2 14.8 0.00 0.00 0.00 78 1016.6
20260901105325 78 92 9.6 17.4 0.00 0.00 0.00 77 1016.8
20260901104824 78 82 7.8 13.9 0.00 0.00 0.00 79 1016.5
20260901104323 78 68 4.3 13.9 0.00 0.00 0.00 79 1016.5
20260901103823 78 111 6.1 13.9 0.00 0.00 0.00 79 1016.8
20260901103323 78 92 4.3 14.8 0.00 0.00 0.00 78 1016.5
20260901103042 78 80 9.6 14.8 0.00 0.00 0.00 78 1016.5
20260901102311 78 114 4.3 13.9 0.00 0.00 0.00 77 1016.8
20260901101812 78 99 4.3 13.9 0.00 0.00 0.00 77 1016.7
20260901101312 78 119 7.0 13.9 0.00 0.01 0.00 76 1016.6
20260901100812 78 101 9.6 13.9 0.00 0.01 0.00 77 1016.7
20260901100313 78 69 9.6 16.5 0.00 0.02 0.00 77 1016.7
20260901095812 78 121 7.8 16.5 0.00 0.02 0.02 76 1016.9
20260901095312 78 68 7.0 13.9 0.00 0.02 0.02 77 1016.9
20260901094812 78 103 7.0 14.8 0.00 0.02 0.02 77 1016.8
20260901094311 78 95 5.2 17.4 0.00 0.02 0.02 78 1016.9
20260901093812 78 76 7.8 20.0 0.00 0.02 0.02 77 1017.0
20260901093311 78 124 4.3 20.0 0.00 0.02 0.02 77 1017.1
20260901092801 78 83 7.0 18.2 0.00 0.02 0.02 78 1017.1
20260901092301 78 81 11.3 18.2 0.00 0.02 0.02 77 1017.2
20260901092019 78 107 7.0 14.8 0.00 0.02 0.02 77 1017.2
20260901091248 78 125 4.3 16.5 0.00 0.02 0.02 78 1017.3
20260901090753 78 93 7.8 18.2 0.00 0.02 0.02 76 1017.0
20260901090748 78 90 8.7 16.5 0.00 0.02 0.02 77 1017.4
20260901085748 78 122 4.3 18.2 0.00 0.05 0.02 77 1017.1
20260901085518 78 90 8.7 17.4 0.00 0.05 0.02 77 1017.4
20260901084748 78 101 7.0 17.4 0.00 0.05 0.02 76 1017.3
20260901084248 78 105 9.6 16.5 0.00 0.05 0.02 75 1017.3
20260901083748 78 58 11.3 17.4 0.00 0.05 0.02 76 1017.1
20260901083248 78 89 6.1 17.4 0.00 0.05 0.02 77 1017.2
20260901082747 78 77 7.8 16.5 0.00 0.05 0.02 77 1017.3
20260901082248 78 110 7.8 17.4 0.00 0.05 0.02 76 1017.7
20260901081737 78 125 10.4 17.4 0.00 0.05 0.02 75 1017.5
20260901081236 78 59 9.6 17.4 0.00 0.05 0.02 75 1017.5
20260901080734 78 86 8.7 16.5 0.00 0.05 0.02 75 1017.6
20260901080506 78 64 7.8 20.9 0.00 0.05 0.02 77 1017.4
20260901075734 78 49 10.4 20.9 0.00 0.05 0.02 78 1017.4
20260901075231 78 68 12.2 17.4 0.00 0.05 0.02 78 1017.4
20260901074730 78 69 6.1 20.0 0.00 0.05 0.02 78 1017.4
20260901074231 78 99 10.4 20.0 0.00 0.06 0.02 77 1017.3
20260901073729 78 89 13.9 20.0 0.00 0.11 0.02 77 1017.4
20260901073229 78 78 11.3 20.0 0.00 0.11 0.02 78 1017.1
20260901072730 78 91 7.0 17.4 0.00 0.13 0.02 78 1017.3
20260901072456 78 102 7.8 17.4 0.00 0.14 0.02 78 1017.2
20260901071725 78 90 7.0 18.2 0.00 0.14 0.02 77 1017.2
20260901071227 79 103 8.7 18.2 0.00 0.14 0.02 78 1017.0
20260901070727 78 76 14.8 18.2 0.00 0.14 0.02 78 1017.0
20260901070224 79 66 12.2 18.2 0.00 0.14 0.02 78 1017.1
20260901065722 79 66 10.4 16.5 0.00 0.14 0.02 78 1017.0
20260901065223 78 71 9.6 16.5 0.00 0.14 0.02 77 1016.9
20260901064722 78 92 5.2 16.5 0.00 0.14 0.02 76 1016.9
20260901064222 78 117 7.8 16.5 0.00 0.14 0.02 75 1016.7
20260901063953 78 84 4.3 14.8 0.00 0.14 0.02 76 1016.8
20260901063221 78 111 7.8 14.8 0.00 0.14 0.02 77 1016.6
20260901062954 78 62 8.7 18.2 0.00 0.14 0.02 77 1016.7
20260901062222 78 110 4.3 18.2 0.00 0.14 0.02 77 1016.7
20260901061721 78 82 7.0 18.2 0.00 0.14 0.02 77 1016.5
20260901061222 79 72 10.4 18.2 0.00 0.14 0.02 76 1016.5
20260901060722 79 62 4.3 22.6 0.00 0.14 0.02 76 1016.9
20260901060223 79 127 7.0 22.6 0.00 0.14 0.02 76 1016.8
20260901055722 79 151 7.0 16.5 0.00 0.14 0.02 76 1016.6
20260901055222 79 100 6.1 17.4 0.00 0.14 0.02 76 1016.5
20260901054727 79 113 7.0 18.2 0.00 0.14 0.02 75 1016.5
20260901054722 79 85 11.3 14.8 0.00 0.14 0.02 75 1016.8
20260901053722 79 92 7.0 18.2 0.00 0.14 0.02 74 1016.4
20260901053453 79 98 7.0 16.5 0.00 0.14 0.02 74 1016.1
20260901052722 79 82 7.8 16.5 0.00 0.14 0.02 77 1016.3
20260901052221 79 126 9.6 16.5 0.00 0.14 0.02 77 1016.2
20260901051722 79 113 9.6 17.4 0.00 0.14 0.02 76 1016.1
20260901051223 79 86 7.0 18.2 0.00 0.14 0.02 76 1015.9
20260901050721 79 75 9.6 18.2 0.00 0.14 0.02 76 1016.2
20260901050222 79 87 7.0 20.9 0.00 0.15 0.02 77 1016.1
20260901045722 79 85 7.0 18.2 0.00 0.16 0.02 76 1016.1
20260901045222 79 120 7.0 18.2 0.00 0.16 0.02 76 1015.7
20260901044721 79 107 11.3 18.2 0.00 0.16 0.02 77 1015.8
20260901044222 79 82 8.7 20.0 0.00 0.16 0.02 77 1015.8
20260901043721 79 58 10.4 20.0 0.00 0.16 0.02 76 1015.8
20260901043221 79 86 9.6 16.5 0.00 0.16 0.02 77 1015.8
20260901042722 79 102 7.0 13.9 0.00 0.16 0.02 76 1015.7
20260901042221 79 100 9.6 14.8 0.00 0.16 0.02 75 1015.7
20260901041721 79 101 7.0 16.5 0.00 0.16 0.02 76 1015.9
20260901041222 79 64 9.6 18.2 0.00 0.16 0.02 76 1015.8
20260901040721 79 86 6.1 18.2 0.00 0.16 0.02 75 1015.7
20260901040221 79 94 4.3 16.5 0.00 0.16 0.02 74 1015.9
20260901035721 80 100 5.2 16.5 0.00 0.16 0.02 73 1015.6
20260901035454 80 72 5.2 16.5 0.00 0.16 0.02 73 1015.6
20260901034721 80 74 7.8 16.5 0.00 0.16 0.02 75 1015.5
20260901034221 80 101 8.7 16.5 0.00 0.17 0.02 75 1015.5
20260901033722 80 133 5.2 16.5 0.00 0.17 0.02 74 1015.6
20260901033222 80 123 4.3 16.5 0.00 0.17 0.02 74 1015.5
20260901032954 80 73 10.4 16.5 0.00 0.17 0.02 74 1015.4
20260901032224 81 61 6.1 16.5 0.00 0.17 0.02 73 1015.5
20260901031722 81 72 7.0 14.8 0.00 0.17 0.02 73 1015.5
20260901031453 81 101 7.0 14.8 0.00 0.17 0.02 72 1015.2
20260901030721 81 113 10.4 17.4 0.00 0.17 0.02 73 1015.5
20260901030221 80 111 10.4 14.8 0.00 0.17 0.02 72 1015.4
20260901025723 81 116 5.2 13.9 0.00 0.17 0.02 73 1015.4
20260901025222 81 73 5.2 16.5 0.00 0.17 0.02 73 1015.3
20260901024728 82 73 3.5 14.8 0.00 0.17 0.02 73 1015.1
20260901024722 82 126 2.6 16.5 0.00 0.17 0.02 74 1015.0
20260901023959 82 103 7.0 14.8 0.00 0.17 0.02 70 1015.5
20260901023722 82 108 4.3 14.8 0.00 0.17 0.02 71 1015.4
20260901022721 82 89 7.8 14.8 0.00 0.17 0.02 71 1015.4
20260901022222 82 82 5.2 14.8 0.00 0.17 0.02 72 1015.5
20260901021723 82 117 5.2 17.4 0.00 0.17 0.02 71 1015.3
20260901021221 82 50 6.1 18.2 0.00 0.17 0.02 71 1015.2
20260901020721 82 66 7.8 18.2 0.00 0.17 0.02 72 1015.5
20260901020453 82 59 7.8 17.4 0.00 0.17 0.02 71 1015.1
20260901015721 82 110 9.6 20.0 0.00 0.17 0.02 72 1015.1
20260901015221 82 74 7.0 20.0 0.00 0.17 0.02 72 1015.4
20260901014721 83 92 10.4 17.4 0.00 0.17 0.02 71 1015.0
20260901014231 83 57 5.2 16.5 0.00 0.17 0.02 71 1015.3
20260901014222 83 78 9.6 17.4 0.00 0.17 0.02 69 1015.3
20260901013221 83 84 8.7 17.4 0.00 0.17 0.02 71 1015.2
20260901012718 83 75 10.4 17.4 0.00 0.17 0.02 71 1015.4
20260901012219 82 74 5.2 13.0 0.00 0.17 0.02 72 1015.4
20260901011716 83 110 5.2 14.8 0.00 0.17 0.02 73 1015.4
20260901011216 83 100 5.2 18.2 0.00 0.17 0.02 73 1015.5
20260901010716 82 80 5.2 18.2 0.00 0.17 0.02 74 1015.3
20260901010215 82 62 10.4 20.0 0.00 0.17 0.02 72 1015.5
20260901005721 83 74 13.0 17.4 0.00 0.17 0.02 71 1015.6
20260901005715 82 88 7.8 20.0 0.00 0.17 0.02 72 1015.7
20260901004715 83 35 8.7 17.4 0.00 0.17 0.02 73 1015.6
20260901004446 83 67 7.8 16.5 0.00 0.17 0.02 72 1015.7
20260901003716 83 128 7.0 17.4 0.00 0.17 0.02 74 1015.4
20260901003222 83 42 5.2 17.4 0.00 0.17 0.02 72 1015.4
20260901003216 83 92 9.6 17.4 0.00 0.17 0.02 72 1015.3
20260901002447 83 81 10.4 20.0 0.00 0.17 0.02 71 1015.5
20260901001716 83 65 11.3 20.0 0.00 0.17 0.02 70 1015.6
20260901001217 83 64 7.0 20.0 0.00 0.17 0.02 71 1015.7
20260901000716 83 50 10.4 20.9 0.00 0.17 0.02 71 1015.9
20260901000215 83 64 12.2 20.9 0.00 0.17 0.02 71 1015.8
20260831235715 83 84 7.0 20.9 0.00 0.17 0.02 72 1015.9
20260831235215 83 59 9.6 17.4 0.00 0.17 0.02 71 1015.8
20260831234715 83 77 7.8 18.2 0.00 0.17 0.02 70 1016.1
20260831234216 83 50 11.3 18.2 0.00 0.17 0.02 71 1016.1
20260831233715 83 68 8.7 16.5 0.00 0.17 0.02 71 1016.2
20260831233216 83 75 13.0 17.4 0.00 0.17 0.02 70 1016.1
20260831232716 83 56 9.6 18.2 0.00 0.17 0.02 70 1016.3
20260831232216 83 41 10.4 18.2 0.00 0.17 0.02 70 1016.3
20260831231716 83 101 0.0 17.4 0.00 0.17 0.02 71 1016.4
20260831231216 83 90 12.2 18.2 0.00 0.17 0.02 71 1016.6
20260831230717 83 89 9.6 18.2 0.00 0.17 0.02 74 1016.7
20260831230215 83 98 6.1 20.0 0.00 0.17 0.02 71 1017.0
20260831225715 84 115 5.2 20.0 0.00 0.17 0.02 69 1016.8
20260831225215 83 90 5.2 16.5 0.00 0.17 0.02 70 1016.7
20260831224716 84 105 10.4 16.5 0.00 0.17 0.02 70 1016.9
20260831224215 84 75 9.6 20.0 0.00 0.17 0.02 71 1016.8
20260831223946 84 97 10.4 20.0 0.00 0.17 0.02 71 1017.1
20260831223215 84 114 7.0 14.8 0.00 0.17 0.02 70 1017.2
20260831222947 83 113 6.1 14.8 0.00 0.17 0.02 72 1017.1
20260831222215 84 110 7.0 17.4 0.00 0.17 0.02 70 1017.4
20260831221715 83 98 6.1 17.4 0.00 0.17 0.02 70 1017.2
20260831221215 84 73 8.7 14.8 0.00 0.17 0.02 71 1017.3
20260831220946 84 64 6.1 14.8 0.00 0.17 0.02 71 1017.3
20260831220215 84 88 8.7 16.5 0.00 0.17 0.02 71 1017.4
20260831215716 84 78 9.6 17.4 0.00 0.17 0.02 70 1017.3
20260831215216 83 82 5.2 17.4 0.00 0.17 0.02 71 1017.3
20260831214715 83 99 7.0 14.8 0.00 0.17 0.02 71 1017.5
20260831214216 83 87 5.2 14.8 0.00 0.17 0.02 71 1017.4
20260831213716 83 94 4.3 14.8 0.00 0.17 0.02 72 1017.6
20260831213216 83 69 5.2 17.4 0.00 0.17 0.02 71 1017.5
20260831212716 84 144 1.7 17.4 0.00 0.17 0.02 71 1017.7
20260831212447 83 132 7.0 17.4 0.00 0.17 0.02 71 1017.6
20260831211715 83 70 4.3 17.4 0.00 0.17 0.02 73 1017.8
20260831211215 83 102 5.2 18.2 0.00 0.17 0.02 72 1017.7
20260831210715 83 123 0.9 18.2 0.00 0.17 0.02 71 1017.8
20260831210215 83 91 8.7 16.5 0.00 0.17 0.02 71 1017.6
20260831205715 83 82 9.6 16.5 0.00 0.17 0.02 72 1017.5
20260831205447 83 91 9.6 16.5 0.00 0.17 0.02 72 1017.7
20260831204703 83 116 10.4 16.5 0.00 0.17 0.02 70 1017.5
20260831204203 82 105 10.4 14.8 0.00 0.17 0.02 71 1017.8
20260831203703 82 59 7.8 18.2 0.00 0.17 0.02 73 1017.8
20260831203204 82 128 8.7 18.2 0.00 0.17 0.02 71 1017.8
20260831202703 82 66 12.2 20.9 0.00 0.17 0.02 71 1017.9
20260831202203 82 100 5.2 20.9 0.00 0.17 0.02 74 1017.7
20260831201703 82 64 7.8 16.5 0.00 0.17 0.02 73 1017.7
20260831201204 82 118 7.8 20.9 0.00 0.17 0.02 73 1017.7
20260831200935 82 93 12.2 20.9 0.00 0.17 0.02 71 1017.5
20260831200436 82 120 11.3 20.0 0.00 0.17 0.02 72 1017.7
20260831195704 82 67 5.2 17.4 0.00 0.17 0.02 73 1017.5
20260831195204 82 83 9.6 18.2 0.00 0.17 0.02 72 1017.6
20260831194934 82 90 4.3 20.9 0.00 0.17 0.02 72 1017.6
20260831194204 81 76 13.0 18.2 0.00 0.17 0.02 73 1017.6
20260831193703 82 61 7.8 14.8 0.00 0.17 0.02 73 1017.4
20260831193205 82 94 6.1 16.5 0.00 0.17 0.02 75 1017.7
20260831192703 82 92 9.6 18.2 0.00 0.17 0.02 74 1017.7
20260831192203 81 138 7.0 18.2 0.00 0.17 0.02 74 1017.6
20260831191704 81 64 9.6 20.0 0.00 0.17 0.02 74 1017.5
20260831191204 81 76 3.5 20.0 0.00 0.17 0.02 75 1017.6
20260831190704 81 93 0.0 17.4 0.00 0.17 0.02 75 1017.8